Theta_e
344 344 344 344 345 346 346 347 346 349 347 348 346 345 344 343 343 343 351 347 348 348 349 349 351 348 348 352 351 352 351 348 348 346 345 344 344 344 345 346 347 347 348
344 344 344 345 346 346 347 348 348 350 349 348 346 343 342 343 342 344 350 348 348 349 348 347 347 348 348 351 352 353 352 347 347 347 344 348 344 339 347 345 346 348 347
344 345 345 344 345 348 348 349 349 350 350 348 348 348 346 347 345 348 348 349 349 349 350 352 351 353 351 346 352 351 353 349 348 349 349 349 353 348 347 349 346 347 346
345 345 345 345 345 346 349 350 351 351 352 350 349 348 347 347 347 347 348 349 351 351 350 351 352 353 351 350 351 350 353 354 348 348 348 351 351 349 347 346 349 347 346
346 345 345 344 344 345 348 350 352 352 351 351 349 349 348 345 346 346 347 348 352 350 349 349 351 352 353 352 355 353 356 352 350 348 346 349 349 350 351 349 349 344 342
347 346 345 345 345 346 347 349 353 353 353 353 352 350 349 347 347 347 350 350 346 350 351 350 350 352 353 354 354 355 355 355 356 353 351 348 348 349 352 353 345 343 344
349 348 348 346 347 347 347 348 353 355 354 353 353 351 351 350 350 350 350 350 349 348 350 352 354 352 353 355 354 355 355 356 355 356 351 350 348 348 347 346 345 345 344
348 349 349 347 348 348 348 348 352 356 355 354 354 354 352 351 350 351 348 346 345 348 350 355 353 353 354 354 355 352 354 351 353 355 354 353 349 346 346 346 348 348 346
347 348 349 349 349 349 349 349 351 355 355 354 355 355 354 353 350 350 350 349 350 348 347 350 352 350 352 351 353 353 353 353 354 354 354 353 350 346 345 347 347 349 350
349 349 350 349 349 349 349 350 351 354 355 354 354 355 355 355 354 352 351 350 349 349 351 352 349 351 351 351 352 350 351 351 351 350 350 351 348 347 346 347 348 347 352
351 350 350 348 349 350 349 351 352 352 354 355 354 354 355 355 356 355 353 353 353 353 353 354 353 353 352 352 352 353 353 353 353 352 352 353 354 353 349 347 352 350 354
352 351 351 349 349 350 351 352 352 352 353 354 355 355 355 355 354 356 355 354 355 354 353 355 355 354 354 353 353 354 351 352 353 354 354 355 355 355 356 355 355 353 355
353 354 353 353 351 350 352 352 352 353 353 354 356 356 355 355 355 354 355 355 354 354 354 354 354 356 354 352 354 354 353 352 353 354 353 354 354 355 355 356 352 354 353
354 354 356 357 355 354 355 355 354 353 354 353 354 355 356 355 354 354 355 356 355 354 354 354 353 354 355 354 354 355 353 354 353 353 352 354 354 353 354 355 355 355 356
352 355 357 359 358 357 357 357 356 355 355 355 355 355 355 356 353 352 353 355 356 355 355 354 354 353 353 353 353 354 353 352 354 353 352 355 355 354 353 352 351 353 353
351 353 356 358 357 357 356 356 356 356 356 355 355 355 354 354 354 355 354 354 354 355 356 355 354 355 354 351 351 352 353 353 353 353 353 353 354 352 349 347 349 351 354
350 352 353 352 352 352 353 354 354 354 354 355 355 356 355 354 352 352 352 354 355 355 355 355 354 355 355 352 351 350 350 349 352 352 353 354 353 352 348 347 346 344 342
350 351 351 351 351 349 349 349 350 350 350 350 349 348 348 349 349 351 352 354 354 354 354 354 355 355 356 354 352 352 350 350 350 353 353 353 353 352 352 347 347 346 344
347 349 348 349 347 348 345 345 346 347 346 346 345 344 343 343 343 344 345 347 350 353 354 354 355 355 356 355 353 353 351 351 351 353 353 354 353 351 349 350 349 344 339
345 345 345 345 345 344 342 343 344 344 344 342 340 339 338 336 337 337 337 339 342 346 350 353 354 355 355 354 354 352 352 350 351 352 352 352 351 343 342 347 347 344 339
343 342 342 342 342 341 341 341 342 344 340 339 338 335 331 330 330 330 330 332 334 338 343 349 352 353 352 353 352 352 351 351 351 350 347 342 343 338 338 342 343 339 333
342 341 341 341 337 338 338 340 341 339 338 336 336 330 327 325 324 322 322 325 331 337 343 346 349 350 352 351 351 350 349 350 351 348 343 333 335 333 335 336 333 329 329
339 338 338 337 335 335 338 340 339 339 337 336 332 329 325 320 316 314 319 321 332 340 343 347 347 346 347 347 349 349 349 349 348 342 332 327 324 322 322 322 325 327 330
337 336 335 335 334 336 339 339 339 337 336 334 331 327 323 319 311 313 313 312 322 330 334 332 330 329 329 333 337 340 340 344 339 333 323 320 320 320 323 324 325 325 325
335 334 334 335 335 335 338 338 337 336 335 335 331 327 323 318 313 309 308 307 310 319 320 320 319 319 317 317 325 326 323 321 322 320 322 323 323 321 320 319 319 321 322
335 335 335 334 334 337 338 337 337 334 334 334 330 327 324 319 315 313 312 313 312 313 315 316 318 317 318 319 318 318 319 320 321 322 322 321 321 321 321 322 323 322 322
Wind_Speed
17 21 17 18 16 18 18 18 17 17 17 17 16 14 14 13 13 12 10 10 10 10 9 7 7 5 3 6 2 7 6 6 2 10 13 9 10 8 9 5 5 4 4
14 20 21 20 20 18 19 19 19 19 18 15 14 13 14 14 14 11 11 11 9 10 10 9 5 6 4 4 3 4 10 6 2 10 11 6 14 25 15 3 3 4 6
18 18 20 20 20 21 20 20 20 20 19 15 13 9 10 6 12 11 11 12 11 10 10 8 10 3 7 8 5 5 5 12 3 2 5 8 3 17 6 7 3 1 5
20 16 20 21 23 22 22 21 21 21 20 18 15 14 13 14 13 14 14 15 12 11 11 11 10 9 10 5 5 7 7 4 12 4 5 2 6 6 6 4 4 4 3
21 17 20 24 21 23 23 23 23 22 21 22 17 16 15 14 10 13 11 11 11 11 10 10 11 10 10 9 7 4 6 7 8 10 9 4 7 9 5 6 6 8 9
19 17 21 21 21 22 23 24 24 25 23 22 21 18 15 18 11 12 10 13 14 13 13 11 11 11 11 8 7 8 7 7 5 8 6 10 9 2 5 9 9 10 9
20 20 20 19 23 23 24 25 25 25 25 24 21 22 19 17 14 8 10 13 15 14 20 17 13 13 13 10 8 8 8 7 7 6 10 11 8 9 8 10 12 10 12
17 19 19 22 20 23 25 25 26 24 24 24 24 22 22 19 18 16 16 14 13 9 9 16 12 12 11 11 10 9 10 12 10 9 9 12 13 11 10 9 10 8 12
17 18 19 23 23 22 24 25 26 25 25 25 24 23 22 22 19 17 20 18 12 11 12 11 14 14 14 15 15 13 14 10 9 12 13 13 13 13 12 9 11 6 9
14 17 16 23 22 23 25 23 24 25 24 24 24 23 23 22 21 17 18 16 16 18 12 9 13 13 16 17 15 15 14 15 14 16 15 13 14 13 13 13 8 12 4
12 13 13 18 24 21 22 23 21 21 22 23 24 23 23 22 21 21 21 21 19 16 14 14 15 15 16 17 17 15 15 9 13 14 14 12 10 15 15 15 11 9 3
10 10 11 14 16 18 18 19 19 22 22 21 21 22 22 22 22 22 22 22 22 21 20 18 17 17 18 16 16 16 17 16 16 15 15 15 14 15 15 15 14 12 7
10 10 10 10 11 13 13 13 16 17 18 20 20 20 21 21 22 22 23 22 22 21 21 21 21 20 20 20 19 17 18 17 18 17 17 15 16 17 14 14 15 11 9
10 10 10 10 10 11 11 11 12 13 16 17 18 20 21 20 21 22 22 22 23 22 23 22 22 21 21 20 20 19 20 18 19 18 15 15 17 18 13 13 11 9 8
11 10 10 9 10 10 9 8 9 10 12 14 16 21 20 18 20 20 20 21 20 23 23 23 23 22 23 23 23 22 21 20 19 18 16 16 17 20 14 10 8 7 7
11 11 11 10 11 11 9 8 8 8 9 11 13 15 16 20 20 22 22 23 24 25 26 26 26 24 25 25 25 24 22 23 22 17 17 15 15 14 12 13 11 7 5
11 11 10 10 10 10 9 8 6 5 5 5 5 6 6 9 17 22 25 26 25 26 26 27 27 26 27 29 25 26 26 23 21 18 16 14 12 12 9 10 9 7 6
10 9 9 10 9 9 8 6 6 4 3 2 2 4 6 9 12 14 18 20 24 26 28 30 30 29 28 30 30 28 26 25 23 18 17 16 14 12 13 9 9 6 5
8 8 9 10 8 8 6 5 5 4 2 1 3 7 9 12 14 16 19 21 23 26 28 29 30 30 30 30 33 29 27 27 24 19 18 17 17 16 17 12 10 9 6
10 9 10 10 9 7 6 5 5 3 2 5 7 10 13 15 18 19 20 22 23 27 27 28 30 32 30 31 31 33 30 27 24 20 19 21 18 16 17 11 14 11 9
9 8 9 7 5 7 6 5 5 7 5 6 9 11 12 15 18 20 21 21 25 27 28 28 27 27 28 28 31 34 34 24 24 23 18 18 20 19 16 13 11 13 13
10 7 7 7 6 5 7 7 7 7 6 7 10 12 15 15 15 17 22 24 26 25 26 27 26 22 22 28 30 34 34 27 28 25 21 19 22 19 18 16 14 14 13
6 5 5 9 7 7 7 8 11 6 8 10 12 13 16 18 18 17 17 19 17 22 22 19 13 17 18 19 24 24 26 32 27 23 25 27 25 22 19 19 16 15 12
5 5 8 9 9 8 10 9 10 9 10 9 12 13 16 15 21 24 19 18 14 10 5 6 9 8 7 11 16 20 25 36 36 32 33 31 28 27 24 18 13 9 4
7 8 9 9 10 10 10 13 12 11 8 8 11 13 15 17 21 30 26 21 21 9 13 13 12 14 17 14 13 22 18 21 39 42 34 34 33 33 26 22 14 12 7
7 7 7 9 11 13 12 15 13 13 9 10 12 14 15 15 29 22 25 33 31 28 26 24 23 28 26 21 31 35 38 36 27 25 34 28 27 29 25 18 12 9 8
Wind_Direction
178 168 187 167 171 172 174 176 179 166 180 176 184 190 191 185 189 188 143 178 194 195 217 240 176 247 305 20 5 265 220 296 59 283 253 209 213 233 237 258 328 358 304
171 174 180 180 179 179 181 183 183 176 188 191 199 193 195 185 190 193 168 195 192 197 209 240 223 222 258 185 244 281 306 254 227 314 337 280 57 329 300 7 313 29 305
172 188 180 191 184 176 187 186 190 184 189 196 195 193 201 206 199 185 184 199 203 208 223 214 248 219 239 238 201 232 264 294 343 243 310 322 77 232 249 164 165 275 330
178 191 187 193 190 184 190 186 190 190 193 194 195 194 201 201 203 210 205 191 199 218 221 225 229 236 254 267 252 244 255 269 287 225 228 302 324 326 309 339 81 255 315
184 190 190 185 199 185 188 188 188 192 193 196 209 198 221 216 229 222 180 202 186 212 219 217 222 227 239 234 257 253 236 248 266 302 303 285 272 229 263 319 296 339 355
201 218 189 188 192 182 189 185 185 190 194 195 204 209 208 236 212 225 199 196 224 202 217 214 216 223 232 249 243 230 230 243 288 292 300 282 306 281 231 246 333 315 303
190 195 191 199 183 181 187 184 186 192 194 196 200 207 212 220 238 235 239 251 219 228 190 199 208 222 224 245 228 226 244 233 249 258 278 295 281 284 300 304 302 321 313
194 193 189 189 189 188 189 189 185 194 197 200 201 205 209 212 219 219 230 235 225 223 221 194 210 222 237 216 229 232 236 228 234 240 261 289 299 292 284 280 307 305 298
193 181 189 175 197 198 190 192 183 195 198 203 205 206 207 214 217 223 209 235 243 239 238 231 208 224 221 229 226 226 231 252 228 242 237 240 263 273 279 281 274 331 301
179 171 185 178 181 196 192 195 194 196 201 203 206 210 213 214 218 219 222 224 226 225 254 231 227 229 229 223 228 240 242 235 243 244 242 245 268 278 270 261 275 281 332
165 167 177 187 175 191 192 200 196 199 201 205 209 213 214 217 218 221 220 218 220 226 229 231 237 230 229 227 225 247 265 263 250 254 277 272 268 268 271 279 306 287 320
146 167 168 181 181 181 193 187 208 201 208 207 207 213 219 219 218 221 225 226 224 219 218 218 224 229 231 232 234 233 247 239 239 244 256 260 258 257 260 277 295 296 287
140 149 159 168 187 187 194 207 206 213 207 219 208 217 218 221 226 227 228 232 230 231 228 220 216 224 230 230 232 234 239 247 252 241 243 246 258 259 254 253 261 263 265
145 144 147 153 166 172 184 201 204 209 211 208 216 220 221 227 228 228 232 230 230 231 235 232 227 223 227 229 231 233 238 242 247 252 255 255 259 264 257 260 255 251 263
152 148 141 142 150 159 169 185 196 199 207 211 218 219 223 222 229 231 230 232 234 230 229 235 235 231 232 234 225 233 234 232 239 254 247 253 256 251 251 239 239 246 249
160 155 146 149 150 150 158 162 171 185 207 220 225 233 231 222 225 234 233 236 239 233 227 227 228 229 234 238 236 230 232 234 238 238 253 251 258 252 238 224 213 201 233
164 162 153 153 146 150 153 158 166 173 187 216 244 282 284 252 250 250 247 238 238 235 232 232 230 230 231 234 235 233 231 241 236 228 239 241 237 220 204 204 210 218 217
171 163 154 151 148 152 139 146 154 154 169 199 274 293 288 278 276 269 260 255 246 239 237 236 233 230 227 228 229 230 225 230 241 232 233 234 214 206 197 186 188 167 109
158 159 160 155 156 147 139 147 158 150 158 94 340 326 313 298 285 273 268 265 260 253 245 240 237 234 233 231 228 225 224 227 226 223 225 215 203 213 198 194 185 152 137
144 158 153 157 165 147 152 160 156 175 89 13 351 339 325 312 299 288 276 267 264 262 257 246 237 233 231 228 227 225 221 220 212 203 200 192 192 203 189 193 179 169 155
146 161 156 159 159 165 155 177 184 83 38 12 2 352 339 321 307 298 292 277 267 259 257 254 244 236 232 231 231 229 219 221 194 182 185 186 187 178 181 176 178 159 151
140 186 174 155 159 176 163 180 106 92 68 35 18 7 356 342 320 304 302 294 274 252 252 249 246 238 236 234 232 231 223 213 192 190 185 182 171 162 160 157 152 154 145
196 193 167 105 145 174 189 143 114 111 73 51 37 28 16 8 354 335 326 319 292 245 251 243 198 217 211 223 231 232 220 208 198 173 160 156 146 138 131 126 128 135 147
143 143 146 162 155 178 178 144 121 120 90 71 52 40 29 23 22 18 14 360 13 37 133 134 135 166 197 217 230 219 198 176 165 161 147 135 124 118 107 97 100 99 121
183 185 193 181 171 176 178 140 134 132 113 98 72 60 47 46 46 40 35 40 46 66 94 103 111 115 92 85 132 141 123 120 142 129 127 117 112 103 96 92 88 89 95
159 166 173 170 171 181 173 158 142 130 140 123 88 82 73 63 70 44 45 65 72 77 88 95 105 103 109 108 104 101 102 106 105 110 112 107 108 108 120 133 136 139 123